Weather History for Camp Pendleton, CA

Change the Weather History Date:

Saturday, November 17, 2012

  Actual Average Record
Temperature  
Mean Temperature 64 °F -  
Max Temperature 72 °F 69 °F 90 °F (2008)
Min Temperature 55 °F 41 °F 31 °F (2000)
Degree Days  
Heating Degree Days 2    
Growing Degree Days 14 (Base 50)    
Moisture  
Dew Point 55 °F    
Average Humidity 79    
Maximum Humidity 88    
Minimum Humidity 55    
Precipitation  
Precipitation 0.02 in - - ()
Sea Level Pressure  
Sea Level Pressure 30.08 in    
Wind  
Wind Speed 2 mph (South)    
Max Wind Speed 10 mph    
Max Gust Speed -    
Visibility 8 miles    
Events Rain    
Averages and records for this station are not official NWS values.
T = Trace of Precipitation, MM = Missing Value Source: NWS Daily Summary

Daily Weather History Graph

Daily Weather History Graph

Search for Another Location

Airport:

Trip Planner

Search our weather history database for the weather conditions in past years. The results will help you decide how hot, cold, wet, or windy it might be!

Date:

Astronomy

Nov. 17, 2012 Rise Set
Actual Time 6:22 AM PST 4:45 PM PST
Civil Twilight 5:56 AM PST 5:12 PM PST
Nautical Twilight 5:26 AM PST 5:42 PM PST
Astronomical Twilight 4:56 AM PST 6:11 PM PST
Moon 10:11 AM PST (11/17) 8:59 PM PST (11/17)
Length of Visible Light 11h 15m
Length of Day
10h 22m
Waxing Crescent, 21% of the Moon is Illuminated
Nov 17
Waxing Crescent
Nov 20
First Quarter
Nov 28
Full
Dec 6
Last Quarter
Dec 13
New

Hourly Weather History & Observations

Time (PST) Temp. Dew Point Humidity Pressure Visibility Wind Dir Wind Speed Gust Speed Precip Events Conditions
12:54 AM 59.0 °F 51.1 °F 75% 30.08 in 10.0 mi ENE 3.5 mph - 0.00 in   Overcast
1:41 AM 57.2 °F 51.8 °F 82% 30.07 in 8.0 mi Calm Calm - 0.00 in Rain Light Rain
1:54 AM 57.0 °F 52.0 °F 83% 30.08 in 6.0 mi West 3.5 mph - 0.00 in Rain Light Rain
2:25 AM 57.2 °F 53.6 °F 88% 30.07 in 2.5 mi East 5.8 mph - 0.01 in Rain Light Rain
2:27 AM 57.2 °F 53.6 °F 88% 30.06 in 3.0 mi East 8.1 mph - 0.01 in Rain Light Rain
2:54 AM 57.9 °F 54.0 °F 87% 30.06 in 9.0 mi Calm Calm - 0.01 in   Overcast
3:54 AM 57.0 °F 52.0 °F 83% 30.06 in 5.0 mi Calm Calm - N/A   Haze
4:00 AM 55.4 °F 51.8 °F 88% 30.06 in 1.8 mi Calm Calm - N/A   Scattered Clouds
4:03 AM 55.4 °F 51.8 °F 88% 30.06 in 0.8 mi Calm Calm - N/A   Scattered Clouds
4:35 AM 55.4 °F 51.8 °F 88% 30.06 in 1.8 mi Calm Calm - 0.01 in   Haze
4:42 AM 55.4 °F 51.8 °F 88% 30.06 in 6.0 mi Calm Calm - 0.01 in   Overcast
4:48 AM 55.4 °F 51.8 °F 88% 30.06 in 1.8 mi Calm Calm - 0.01 in   Overcast
4:54 AM 55.9 °F 52.0 °F 87% 30.06 in 1.2 mi Calm Calm - 0.01 in   Overcast
4:59 AM 55.4 °F 51.8 °F 88% 30.06 in 2.0 mi Calm Calm - N/A   Overcast
5:07 AM 57.2 °F 53.6 °F 88% 30.07 in 7.0 mi Calm Calm - N/A   Overcast
5:54 AM 55.0 °F 51.1 °F 86% 30.08 in 6.0 mi Calm Calm - N/A   Overcast
6:54 AM 55.9 °F 52.0 °F 87% 30.09 in 6.0 mi Calm Calm - N/A   Mostly Cloudy
7:54 AM 60.1 °F 55.9 °F 86% 30.10 in 10.0 mi Calm Calm - N/A   Mostly Cloudy
8:54 AM 64.9 °F 57.0 °F 75% 30.12 in 10.0 mi Calm Calm - N/A   Partly Cloudy
9:54 AM 66.0 °F 57.9 °F 75% 30.11 in 10.0 mi Calm Calm - 0.00 in Rain Light Rain
10:54 AM 71.1 °F 57.0 °F 61% 30.10 in 10.0 mi Calm Calm - 0.00 in   Scattered Clouds
11:54 AM 72.0 °F 55.0 °F 55% 30.07 in 10.0 mi South 10.4 mph - N/A   Overcast
12:54 PM 71.1 °F 55.0 °F 57% 30.06 in 10.0 mi SSW 9.2 mph - N/A   Mostly Cloudy
1:54 PM 70.0 °F 55.0 °F 59% 30.06 in 10.0 mi Variable 5.8 mph - N/A   Overcast
2:54 PM 69.1 °F 55.0 °F 61% 30.05 in 10.0 mi SSW 6.9 mph - N/A   Overcast
3:54 PM 66.9 °F 55.9 °F 68% 30.05 in 10.0 mi SW 3.5 mph - N/A   Overcast
4:54 PM 66.0 °F 57.0 °F 73% 30.05 in 10.0 mi Calm Calm - N/A   Overcast
5:54 PM 66.0 °F 57.0 °F 73% 30.06 in 10.0 mi Calm Calm - N/A   Overcast
6:46 PM 64.4 °F 57.2 °F 77% 30.07 in 10.0 mi Calm Calm - N/A   Overcast
6:54 PM 64.0 °F 57.0 °F 78% 30.07 in 10.0 mi Calm Calm - N/A   Overcast
7:10 PM 64.4 °F 57.2 °F 77% 30.07 in 10.0 mi Calm Calm - N/A   Overcast
7:54 PM 64.0 °F 57.0 °F 78% 30.08 in 10.0 mi Calm Calm - N/A   Overcast
8:22 PM 64.4 °F 57.2 °F 77% 30.08 in 10.0 mi Calm Calm - N/A   Overcast
8:52 PM 62.6 °F 55.4 °F 77% 30.09 in 10.0 mi Calm Calm - N/A   Mostly Cloudy
8:54 PM 62.1 °F 55.9 °F 80% 30.09 in 10.0 mi Calm Calm - N/A   Mostly Cloudy
9:18 PM 60.8 °F 55.4 °F 82% 30.09 in 10.0 mi Calm Calm - N/A   Overcast
9:54 PM 61.0 °F 55.9 °F 83% 30.10 in 10.0 mi Calm Calm - N/A   Overcast
10:01 PM 60.8 °F 55.4 °F 82% 30.10 in 10.0 mi Calm Calm - N/A   Overcast
10:27 PM 62.6 °F 55.4 °F 77% 30.10 in 10.0 mi Calm Calm - N/A   Overcast
10:54 PM 61.0 °F 55.0 °F 81% 30.11 in 10.0 mi Calm Calm - N/A   Mostly Cloudy
11:29 PM 60.8 °F 55.4 °F 82% 30.10 in 10.0 mi Calm Calm - N/A   Overcast
11:36 PM 60.8 °F 55.4 °F 82% 30.10 in 10.0 mi Calm Calm - N/A   Overcast
11:54 PM 61.0 °F 55.0 °F 81% 30.10 in 10.0 mi Calm Calm - N/A   Mostly Cloudy